Home   Weather   Nieuwpoort-Bad   Past weeks
Flag for Belgium

Past Weather in Nieuwpoort-Bad, Belgium — Yesterday and Last 2 Weeks

Now
43 °F

Passing clouds.


Feels Like: 36 °F
Forecast: 46 / 39 °F
Wind: 14 mph from North

Location: Oostende Airport

Current Time: Jan 18, 2020 at 11:48:23 pm

Latest Report: Jan 18, 2020 at 10:50 pm


Visibility: N/A

Pressure: 30.48 "Hg

Humidity: 71%

Dew Point: 34 °F

Location of Nieuwpoort-BadLocation

Past Weather in Nieuwpoort-Bad — Graph

°F

Nieuwpoort-Bad Temperature Yesterday

Maximum temperature yesterday: 50 °F (at 12:20 am)
Minimum temperature yesterday: 37 °F (at 9:50 pm)
Average temperature yesterday: 47 °F

High & Low Weather Summary for the Past Weeks

 TemperatureHumidityPressure
High55 °F (Jan 9, 1:50 pm)100% (Jan 7, 1:50 am)30.57 "Hg (Jan 7, 1:50 am)
Low36 °F (Jan 7, 8:20 am)66% (Jan 17, 6:20 pm)29.53 "Hg (Jan 14, 3:50 am)
Average46 °F85%30.13 "Hg
* Reported Jan 3 10:20 pm — Jan 18 10:20 pm, Nieuwpoort-Bad. Weather by CustomWeather, © 2020

Note: Actual official high and low records may vary slightly from our data, if they occured in-between our weather recording intervals... More about our weather records

Nieuwpoort-Bad Weather History for the Previous 24 Hours

Scroll right to see more
 ConditionsComfort  
Time TempWeatherWind HumidityBarometerVisibility
10:20 pm
Sat, Jan 18
43 °FPassing clouds.14 mph71%30.48 "HgN/A
9:20 pm43 °FPassing clouds.13 mph71%30.45 "HgN/A
8:50 pm43 °FPassing clouds.14 mph71%30.45 "HgN/A
8:20 pm43 °FPassing clouds.13 mph71%30.45 "HgN/A
7:50 pm43 °FPassing clouds.12 mph71%30.42 "HgN/A
7:20 pm43 °FPassing clouds.12 mph71%30.42 "HgN/A
6:50 pm43 °FPassing clouds.10 mph71%30.42 "HgN/A
6:20 pm43 °FPassing clouds.10 mph71%30.42 "HgN/A
5:50 pm43 °FPassing clouds.10 mph71%30.39 "HgN/A
5:20 pm43 °FPassing clouds.10 mph71%30.39 "HgN/A
4:50 pm43 °FScattered clouds.10 mph76%30.36 "HgN/A
4:20 pm43 °FScattered clouds.10 mph76%30.36 "HgN/A
3:50 pm43 °FScattered clouds.12 mph76%30.36 "HgN/A
3:20 pm45 °FScattered clouds.10 mph71%30.36 "HgN/A
2:20 pm45 °FScattered clouds.14 mph71%30.33 "HgN/A
1:50 pm45 °FScattered clouds.15 mph71%30.33 "HgN/A
12:50 pm45 °FScattered clouds.14 mph76%30.30 "HgN/A
12:20 pm43 °FScattered clouds.14 mph76%30.30 "HgN/A
11:50 am43 °FScattered clouds.15 mph76%30.30 "HgN/A
11:20 am43 °FPassing clouds.15 mph76%30.30 "HgN/A
10:50 am43 °FScattered clouds.15 mph76%30.30 "HgN/A
10:20 am43 °FScattered clouds.17 mph76%30.27 "HgN/A
9:50 am43 °FScattered clouds.16 mph76%30.27 "HgN/A
9:20 am43 °FPassing clouds.15 mph76%30.24 "HgN/A
8:50 am43 °FPassing clouds.16 mph76%30.24 "HgN/A
8:20 am43 °FPassing clouds.17 mph81%30.24 "HgN/A
7:50 am43 °FPassing clouds.15 mph81%30.21 "HgN/A
7:20 am43 °FPartly cloudy.14 mph81%30.21 "HgN/A
6:50 am41 °FPassing clouds.13 mph81%30.18 "HgN/A
6:20 am41 °FPassing clouds.13 mph81%30.18 "HgN/A
5:50 am41 °FPassing clouds.9 mph81%30.18 "HgN/A
5:20 am39 °FPassing clouds.9 mph87%30.18 "HgN/A
4:50 am39 °FPassing clouds.12 mph87%30.18 "HgN/A
4:20 am39 °FPartly cloudy.12 mph87%30.18 "HgN/A
3:50 am39 °FPartly cloudy.12 mph93%30.15 "HgN/A
3:20 am39 °FPartly cloudy.10 mph93%30.15 "HgN/A
2:50 am39 °FPartly cloudy.10 mph93%30.15 "HgN/A
2:20 am39 °FSprinkles. Partly cloudy.12 mph93%30.15 "HgN/A
1:50 am39 °FRain showers. Partly cloudy.12 mph87%30.15 "Hg4 mi
1:20 am41 °FSprinkles. Passing clouds.16 mph87%30.12 "HgN/A
12:50 am39 °FPassing clouds.13 mph87%30.12 "HgN/A
12:20 am39 °FSprinkles. Passing clouds.14 mph87%30.12 "HgN/A
11:50 pm
Fri, Jan 17
37 °FPassing clouds.10 mph87%30.12 "HgN/A
11:20 pm37 °FPassing clouds.9 mph87%30.09 "HgN/A
Weather by CustomWeather, © 2020

See weather overview

Advertising